Powrót do katalogu

YUNYAO-1 58

AktywnyPogodaSSO
NORAD 63294·PAYLOAD·🇨🇳 China
Ta nazwa satelity nie została jeszcze potwierdzona przez oficjalne źródła.

Wystrzelony Mar 17, 2025 z Jiuquan Satellite Launch Center

Loading…

Następne Przeloty (najbliższe 24 godziny)

TLE

ŚwieżeSource: Space-Track

Epoka: Sep 14, 2026, 15:35 UTC

1 63294U 25055D   26257.64943523  .00007168  00000-0  35877-3 0  9994
2 63294  97.6642  38.3747 0013680 184.4941 175.6172 15.17643172 82579

Śledź YUNYAO-1 58 w czasie rzeczywistym z AllMySat

Download on the App Store